Location: Unspecified
(0.0000°N, 0.0000°E)
Time: 09:39:44
(UTC+00:00)

Vanguard 2 Rocket - Pass Details

Date: 09 October 2022
Orbit: 555 x 3321 km, 32.9° (Epoch: 06 December)

Event Time Altitude Azimuth Distance (km) Brightness Sun altitude
Rises 02:46:45 0° 328° (NNW) 4,428 - -44.8°
Reaches altitude 10° 02:52:43 10° 359° (N) 2,774 - -43.3°
Maximum altitude 02:54:43 11° 17° (NNE) 2,458 - -42.9°
Drops below altitude 10° 02:56:30 10° 36° (NE) 2,384 - -42.4°
Exits shadow 02:58:07 - 53° (NE) 2,510 9.6 -42.0°
Sets 03:00:26 0° 72° (ENE) 2,969 10.3 -41.4°
